Regional Weather Roundup
Issued by NWS

Home | Current Version | Previous Version | Text Only | Print | Product List | Glossary On
Versions: 1 2 3 4 5 6 7 8 9 10 11 12 13 14 15 16 17 18 19 20 21 22 23 24 25 26 27 28 29 30 31 32 33 34 35 36 37 38 39 40 41 42 43 44 45 46 47 48 49 50
000
ASHW40 PHFO 251443
RWRHI

WEATHER ROUNDUP FOR HAWAII
NATIONAL WEATHER SERVICE HONOLULU HI
400 AM HST SAT FEB 25 2017

THIS IS AN AUTOMATED REPORT THAT HAS NOT BEEN QUALITY CONTROLLED.

NOTE..."FAIR" INDICATES FEW OR NO CLOUDS BELOW 12,000 FEET WITH NO
SIGNIFICANT WEATHER AND/OR OBSTRUCTIONS TO VISIBILITY.

* - THESE SITES REPORT LIMITED FIELDS

HIZ001>004-251500-
KAUAI-NIIHAU-

CITY           SKY/WX    TMP DP  RH WIND       PRES   REMARKS
LIHUE APT      CLOUDY    61  53  75 W8        30.06F
PORT ALLEN*      N/A     64 N/A N/A NE9         N/A
POIPU*           N/A     57 N/A N/A N3          N/A
PRINCEVILLE*     N/A     59 N/A N/A S3          N/A
KOKOLE POINT*  NOT AVBL
MOLOAA DAIRY*    N/A     59  54  82 CALM        N/A
WAIMEA HTS*      N/A     63  46  55 N6          N/A
PUU OPAE*      NOT AVBL
PUU LUA*       NOT AVBL
MAKAHA RIDGE*    N/A     57  52  82 SE1G10      N/A
$$

HIZ005>011-251500-
OAHU-

CITY           SKY/WX    TMP DP  RH WIND       PRES   REMARKS
HONOLULU       PTCLDY    64  55  72 NW6       30.03F
KALAELOA       MOCLDY    67  55  65 NE5       30.04F
KANEOHE MCB    NOT AVBL
WHEELER FIELD  FAIR      59  55  85 NW3       30.03
BELLOWS*         N/A    N/A N/A N/A NE7         N/A
KAHUKU*          N/A    N/A N/A N/A E5          N/A
WHEELER*         N/A    N/A N/A N/A N6          N/A
WAIANAE HARBOR   N/A    N/A N/A N/A E3          N/A
DILLINGHAM*    NOT AVBL
KAHUKU TRN*      N/A     72  63  73 W3          N/A
KAWAILOA*        N/A     61  55  82 CALM        N/A
KII*             N/A     70  57  64 NE10G16     N/A
MAKUA RANGE*     N/A     68  59  73 W6          N/A
OAHU FOREST NW   N/A     61  54  77 CALM        N/A
SCHOFIELD BRK*   N/A     59  57  94 MISG        N/A
SCHOFIELD S*   NOT AVBL
WAIANAE VLY*     N/A     63  54  72 NW3G10      N/A
KUAOKALA*        N/A     64  -4   6 NE12G18     N/A
HONOULIUULI*   NOT AVBL
MOKUOLOE IS*   NOT AVBL
PALEHUA*         N/A     57  52  82 N5G12       N/A
WAIAWA PHB*    NOT AVBL
$$

HIZ012>013-251500-
MOLOKAI-

CITY           SKY/WX    TMP DP  RH WIND       PRES   REMARKS
MOLOKAI AIRPT  MOCLDY    66  59  78 N6        30.04F
KALAUPAPA      NOT AVBL
MAKAPULAPAI*   NOT AVBL
MOLOKAI 1*       N/A     54  50  87 CALM        N/A
PUU ALII*        N/A     48  48 100 CALM        N/A
$$

HIZ016-251500-
KAHOOLAWE-

CITY           SKY/WX    TMP DP  RH WIND       PRES   REMARKS
KAHOOLAWE*     NOT AVBL
HAKIOAWA*        N/A     63  61  92 MISG      30.44S
HONOKANAIA*      N/A     68  60  74 N7        29.96F
KANELOA*         N/A     66  59  77 NE6       30.08S
KEALIALALO*    NOT AVBL
LUA MAKIKA*    NOT AVBL
$$

HIZ014>015-251500-
LANAI-

CITY           SKY/WX    TMP DP  RH WIND       PRES   REMARKS
LANAI CITY       N/A     62  58  86 NE13      30.06F
LANAI 1*         N/A     63  57  82 NE12G17     N/A
$$

HIZ017>028-251500-
MAUI-

CITY           SKY/WX    TMP DP  RH WIND       PRES   REMARKS
KAHULUI        CLOUDY    59  55  87 S3        30.03S
KAPALUA-W MAUI NOT AVBL
HANA AIRPORT   LGT RAIN  64  63  94 CALM      30.06S
HANA*            N/A     64 N/A N/A SW6G12      N/A
HALEAKALA SUMM   N/A     36 -11  13 W9          N/A  WCI  29
MAALAEA BAY*     N/A     66 N/A N/A N8          N/A
HALEAKALA*     NOT AVBL
KAUPO GAP*       N/A     61  52  72 NW6G14      N/A
KULA 1*          N/A     41  14  33 SE5         N/A
$$

HIZ023>026-251500-
BIG ISLAND OF HAWAII COAST AND LOWER SLOPES-

CITY           SKY/WX    TMP DP  RH WIND       PRES   REMARKS
KAILUA KONA    MOCLDY    71  59  65 NE7       29.99F
HILO           CLOUDY    63  50  62 SW7       30.02S
HONOKAA*         N/A     57 N/A N/A VRB1        N/A
KAWAIHAE MWT*    N/A     70 N/A N/A E5          N/A
KAWAIHAE*        N/A     70 N/A N/A NE3       30.00F
SOUTH POINT*     N/A     63 N/A N/A NW9         N/A
UPOLU AIRPORT* NOT AVBL
KAMUELA*       PTSUNNY   50  46  87 NE5       30.08F
HAKALAU*         N/A     37  34  87 W3          N/A
KALOKO-HONOKO*   N/A     70  59  68 NE5       29.98F
PALI 2*          N/A     55  46  71 S3G10       N/A
KEALAKOMO*       N/A     68  54  60 N9          N/A
KAUPULEHU*       N/A     64  52  63 VRB8        N/A
KAPAPALA*        N/A     53  51  92 NW7         N/A
LOWER KAHUKU*    N/A     52  48  87 N1          N/A
PUHE CS*         N/A     68  48  49 E7G16       N/A
PUHO CS*         N/A     68  55  62 NE3         N/A
PTA KEAMUKU*     N/A     52  48  87 CALM        N/A
WAIKOLOA*        N/A     61  50  67 SE6         N/A
$$

HIZ027>028-251500-
BIG ISLAND OF HAWAII INTERIOR AND SUMMMITS-

CITY           SKY/WX    TMP DP  RH WIND       PRES   REMARKS
BRADSHAW FIELD CLOUDY    43  37  81 CALM      30.24F
MK VISITOR CEN NOT AVBL
MAUNA KEA*       N/A     25 -27   9 SW24        N/A  WCI   9
MAUNA LOA*       N/A     34 -29   6 MISG        N/A
MAUNA LOA 1*   NOT AVBL
PTA KIPUKA*      N/A     64  64 100 SE3         N/A
PTA RANGE 17*    N/A     63  57  82 CALM        N/A
PTA WEST*        N/A     68  63  83 SE8         N/A
NENE CABIN*      N/A    N/A N/A N/A NW6         N/A
AHUMOA*          N/A     43  34  70 SE3         N/A
PTA PORTABLE*  NOT AVBL
PUU MALI*        N/A    N/A N/A N/A SW8         N/A
$$

HIC003-251500-
NORTHWEST ISLANDS-

CITY           SKY/WX    TMP DP  RH WIND       PRES   REMARKS
MIDWAY ISLAND  CLOUDY    63  55  77 NE16      30.21F
MIDWAY NOS*      N/A     64 N/A N/A MISG      30.18F
FRENCH FRIGATE NOT AVBL
$$

PHZ110>124-180-251500-
BUOY REPORTS

STATION/POSITION TIME  TEMP    WIND        PRES    WAVE   SWELL
                       AIR SEA DIR/SP/G            HT/PER HT/DIR
                 (UTC) (F)     (DEG/KT/KT) (MB)    (FT/S) (FT/D)
BUOY 51001       1430   67 72   CALM  /  2 1016.9F
BUOY 51101       1350   68 72   CALM  /  2 1017.8F   6/15   7/300
BUOY 51100       NOT AVBL
BUOY 51002       1430   75 77   70/ 14/ 16 1014.5F
BUOY 51003       1350   72 77   40/ 10/ 14 1015.3F   7/16   7/300
BUOY 51004       1350      76   40/ 14/ 17 1014.8F   6/13   5
BARBERS PT BUOY  NOT AVBL
WAIMEA BAY BUOY  1402      74                N/A     6/15   5/310
KAILUA BAY BUOY  1404      75                N/A     5/11   2/350
LANAI BUOY       1415      77                N/A     2/17   2/290
BARBERS PT 2     NOT AVBL
PAUWELA MAUI     1409      75                N/A     7/17   5/330
HILO             1412      76                N/A     6/17   3/330
KANEOHE BAY BUOY 1406      75                N/A     5/11   2
HANALEI KAUAI    1352      75                N/A     7/15   7/320
KAHULUI HARBOR   1418          120/  2/  2   N/A
HONOLULU HARBOR  1418           40/  4/  5   N/A
KILO NALU        NOT AVBL
HILO HARBOR      1418          190/  4/  6   N/A
MOKUOLOE         1336   67 72  220/  2/  3 1017.2F
NAWILIWILI       1418   59     250/  6/  7 1017.4
WHOTS BUOY       NOT AVBL
BUOY 51028       NOT AVBL
$$

......................KEY........................................
  SKY/WX - SKY CONDITIONS/PRESENT WEATHER
  TMP    - TEMPERATURE IN FAHRENHEIT
  DWPT   - DEWPOINT IN FAHRENHEIT
  RH     - RELATIVE HUMIDITY IN PERCENT
  WIND   - DIRECTION AND SPEED /MPH FOR ISLANDS...KTS FOR BUOYS/
  PRES   - MEAN SEA LEVEL PRESSURE IN INCHES OF HG
  VSB    - VISIBILITY IN MILES
  HX     - HEAT INDEX
  WCI    - WIND CHILL INDEX
  VRB    - VARIABLE WIND DIRECTION
  N/A    - NOT AVAILABLE




USA.gov is the U.S. government's official web portal to all federal, state and local government web resources and services.